This demonstration page uses our WeatherBlox Daily Observations layout. Learn more.

40.92945, -100.16068

Hourly Observations for December 30, 2015

Temp ( °F °C ) Dew Point ( °F °C ) Humidity (%) Winds ( mph kmh ) Pressure ( in mb ) Visibility ( mi km ) Precip ( " mm )
12:15 am 00:15 Cloudy 24 -4.5 22 -5.6 92 92 Calm 30.27 1025 7 11.26538 N/A
12:35 am 00:35 Cloudy 24 -4.5 22 -5.5 93 93 Calm 30.27 1025 10 16.0934 N/A
12:55 am 00:55 Cloudy 24 -4.2 22 -5.5 91 91 Calm 30.24 1024 10 16.0934 N/A
1:15 am 01:15 Cloudy 24 -4.3 22 -5.5 91 91 Calm 30.24 1024 10 16.0934 N/A
1:35 am 01:35 Cloudy 24 -4.2 22 -5.4 91 91 Calm 30.24 1024 10 16.0934 N/A
1:55 am 01:55 Cloudy 24 -4.2 22 -5.5 91 91 Calm 30.24 1024 10 16.0934 N/A
2:15 am 02:15 Cloudy 25 -4.1 23 -5.2 92 92 Calm 30.24 1024 10 16.0934 N/A
2:35 am 02:35 Cloudy 25 -4.1 23 -5.2 92 92 SSE 3 6 30.24 1024 10 16.0934 N/A
2:55 am 02:55 Cloudy 25 -4.1 22 -5.3 91 91 Calm 30.27 1025 10 16.0934 N/A
3:15 am 03:15 Cloudy 25 -4 22 -5.3 91 91 Calm 30.27 1025 10 16.0934 N/A
3:35 am 03:35 Cloudy 25 -4 22 -5.3 91 91 Calm 30.27 1025 10 16.0934 N/A
3:55 am 03:55 Cloudy 25 -4 22 -5.5 89 89 Calm 30.27 1025 10 16.0934 N/A
4:15 am 04:15 Cloudy 25 -4 22 -5.5 89 89 Calm 30.27 1025 10 16.0934 N/A
4:35 am 04:35 Cloudy 24 -4.3 22 -5.6 91 91 Calm 30.27 1025 10 16.0934 N/A
4:55 am 04:55 Cloudy with Light Snow 24 -4.5 22 -5.7 91 91 Calm 30.27 1025 7 11.26538 N/A
5:15 am 05:15 Cloudy with Light Snow 23 -5 21 -6.1 92 92 Calm 30.27 1025 7 11.26538 N/A
5:35 am 05:35 Cloudy with Mist and Fog 22 -5.5 20 -6.5 93 93 Calm 30.27 1025 2.5 4.02335 N/A
5:55 am 05:55 Cloudy with Mist and Fog 20 -6.5 19 -7.5 93 93 Calm 30.3 1026 0.75 1.207005 N/A
6:15 am 06:15 Cloudy with Mist and Fog 20 -6.4 19 -7.2 94 94 Calm 30.3 1026 2.5 4.02335 N/A
6:35 am 06:35 Cloudy with Mist and Fog 21 -6 19 -7 93 93 Calm 30.3 1026 4 6.43736 N/A
6:55 am 06:55 Cloudy 22 -5.3 21 -6.1 94 94 Calm 30.3 1026 7 11.26538 N/A
7:15 am 07:15 Cloudy 23 -5.2 21 -6 94 94 Calm 30.3 1026 10 16.0934 N/A
7:35 am 07:35 Cloudy 22 -5.5 20 -6.4 93 93 Calm 30.33 1027 10 16.0934 N/A
7:55 am 07:55 Cloudy 22 -5.5 21 -6.2 95 95 Calm 30.33 1027 10 16.0934 N/A
8:15 am 08:15 Cloudy 22 -5.4 21 -6.2 94 94 Calm 30.33 1027 10 16.0934 N/A
8:35 am 08:35 Cloudy 22 -5.5 21 -6.2 95 95 Calm 30.33 1027 10 16.0934 N/A
8:55 am 08:55 Cloudy 22 -5.5 20 -6.5 93 93 W 7 11 30.33 1027 10 16.0934 N/A
9:15 am 09:15 Mostly Cloudy 21 -6.2 19 -7.1 93 93 W 6 9 30.36 1028 10 16.0934 N/A
9:35 am 09:35 Partly Cloudy 20 -6.6 18 -7.7 92 92 NW 3 6 30.39 1029 7 11.26538 N/A
9:55 am 09:55 Partly Cloudy 21 -6.3 18 -7.7 90 90 NW 5 7 30.36 1028 10 16.0934 N/A
10:15 am 10:15 Partly Cloudy 21 -6 18 -7.8 87 87 WNW 5 7 30.36 1028 10 16.0934 N/A
10:35 am 10:35 Mostly Cloudy 22 -5.5 19 -7.5 86 86 WNW 5 7 30.36 1028 10 16.0934 N/A
10:55 am 10:55 Cloudy 23 -5.2 19 -7.4 85 85 W 3 6 30.36 1028 10 16.0934 N/A
11:15 am 11:15 Cloudy 23 -5 19 -7.5 83 83 W 5 7 30.36 1028 10 16.0934 N/A
11:35 am 11:35 Cloudy 24 -4.7 19 -7.4 82 82 W 3 6 30.36 1028 10 16.0934 N/A
11:55 am 11:55 Cloudy 24 -4.5 19 -7.5 80 80 WSW 3 6 30.36 1028 10 16.0934 N/A
12:15 pm 12:15 Cloudy 25 -4 19 -7.1 79 79 W 3 6 30.36 1028 10 16.0934 N/A
12:35 pm 12:35 Partly Cloudy 26 -3.3 20 -6.6 78 78 W 6 9 30.3 1026 10 16.0934 N/A
12:55 pm 12:55 Partly Cloudy 25 -3.8 20 -6.5 82 82 WNW 10 17 30.33 1027 10 16.0934 N/A
1:15 pm 13:15 Sunny 25 -3.7 20 -6.6 81 81 NW 9 15 30.33 1027 10 16.0934 N/A
1:35 pm 13:35 Sunny 25 -3.9 20 -6.7 81 81 NW 7 11 30.33 1027 7 11.26538 N/A
1:55 pm 13:55 Sunny 25 -3.7 20 -6.9 79 79 WNW 7 11 30.33 1027 7 11.26538 N/A
2:15 pm 14:15 Sunny 26 -3.5 20 -6.8 78 78 WNW 7 11 30.27 1025 7 11.26538 N/A
2:35 pm 14:35 Sunny 26 -3.6 19 -7.1 77 77 WNW 3 6 30.27 1025 10 16.0934 N/A
2:55 pm 14:55 Sunny 26 -3.6 19 -7.1 77 77 WNW 6 9 30.33 1027 10 16.0934 N/A
3:15 pm 15:15 Sunny 26 -3.3 20 -6.9 76 76 NW 7 11 30.27 1025 10 16.0934 N/A
3:35 pm 15:35 Sunny 26 -3.2 19 -7.2 74 74 NW 7 11 30.3 1026 10 16.0934 N/A
3:55 pm 15:55 Sunny 26 -3.2 19 -7.4 73 73 NW 5 7 30.3 1026 10 16.0934 N/A
4:15 pm 16:15 Sunny 26 -3.3 19 -7.5 73 73 NNW 5 7 30.3 1026 10 16.0934 N/A
4:35 pm 16:35 Sunny 26 -3.6 19 -7.3 76 76 Calm 30.33 1027 10 16.0934 N/A
4:55 pm 16:55 Sunny 25 -4 19 -7.2 79 79 Calm 30.33 1027 10 16.0934 N/A
5:15 pm 17:15 Sunny 24 -4.5 19 -7.3 81 81 Calm 30.33 1027 10 16.0934 N/A
5:35 pm 17:35 Clear 22 -5.6 18 -7.8 85 85 Calm 30.33 1027 10 16.0934 N/A
5:55 pm 17:55 Clear 20 -6.4 17 -8.3 87 87 Calm 30.33 1027 10 16.0934 N/A
6:15 pm 18:15 Clear 20 -6.7 17 -8.6 87 87 Calm 30.36 1028 10 16.0934 N/A
6:35 pm 18:35 Clear 19 -7.2 17 -8.6 90 90 Calm 30.39 1029 10 16.0934 N/A
6:55 pm 18:55 Clear 18 -7.6 15 -9.4 87 87 Calm 30.39 1029 7 11.26538 N/A
7:15 pm 19:15 Clear 18 -8 15 -9.4 90 90 Calm 30.39 1029 7 11.26538 N/A
7:35 pm 19:35 Clear 17 -8.2 15 -9.5 90 90 Calm 30.39 1029 7 11.26538 N/A
7:55 pm 19:55 Clear with Mist and Fog 16 -8.8 14 -9.9 92 92 SSE 3 6 30.45 1031 5 8.0467 N/A
8:15 pm 20:15 Clear with Mist and Fog 16 -9 14 -10.1 92 92 Calm 30.45 1031 5 8.0467 N/A
8:35 pm 20:35 Clear with Mist and Fog 17 -8.4 15 -9.5 92 92 Calm 30.42 1030 3 4.82802 N/A
8:55 pm 20:55 Clear with Mist and Fog 14 -10 12 -11.1 92 92 Calm 30.45 1031 2 3.21868 N/A
9:15 pm 21:15 Mostly Cloudy with Mist and Fog 11 -11.5 9 -13 89 89 Calm 30.45 1031 1.25 2.011675 N/A
9:35 pm 21:35 Clear with Mist and Fog 10 -12.1 8 -13.5 89 89 Calm 30.48 1032 5 8.0467 N/A
9:55 pm 21:55 Mostly Cloudy with Mist and Fog 9 -12.7 7 -14.1 89 89 Calm 30.48 1032 1.5 2.41401 N/A
10:15 pm 22:15 Mostly Cloudy with Freezing Fog 9 -12.6 7 -14 89 89 Calm 30.48 1032 5 8.0467 N/A
10:35 pm 22:35 Mostly Cloudy with Freezing Fog 9 -12.6 7 -14 89 89 Calm 30.48 1032 5 8.0467 N/A
10:55 pm 22:55 Mostly Cloudy with Freezing Fog 9 -12.8 6 -14.3 89 89 Calm 30.48 1032 0.25 0.402335 N/A
11:15 pm 23:15 Mostly Cloudy with Freezing Fog 8 -13.5 5 -15.1 88 88 Calm 30.48 1032 5 8.0467 N/A
11:35 pm 23:35 Mostly Cloudy with Freezing Fog 8 -13.3 5 -14.9 88 88 Calm 30.48 1032 0.25 0.402335 N/A
11:55 pm 23:55 Mostly Cloudy with Mist and Fog 6 -14.2 3 -16 86 86 Calm 30.48 1032 0.75 1.207005 N/A

Powered by AerisWeather